Weather History for KP60 - May, 2013

Change the Weather History Date:

Saturday, May 4, 2013

  Actual Average Record
Temperature  
Mean Temperature 37 °F 37 °F  
Max Temperature 45 °F 48 °F 64 °F (2004)
Min Temperature 29 °F 25 °F 14 °F (2001)
Degree Days  
Heating Degree Days 28 28  
Month to date heating degree days 143 115  
Since 1 July heating degree days 10572 10366  
Cooling Degree Days 0 0  
Month to date cooling degree days 0 0  
Year to date cooling degree days 0 0  
Moisture  
Dew Point 26 °F    
Average Humidity 71    
Maximum Humidity 92    
Minimum Humidity 49    
Precipitation  
Precipitation 0.00 in 0.07 in 0.25 in (2003)
Month to date precipitation 0.04 0.28  
Year to date precipitation 7.00 7.09  
Sea Level Pressure  
Sea Level Pressure 30.15 in    
Wind  
Wind Speed 3 mph (ENE)    
Max Wind Speed 9 mph    
Max Gust Speed 18 mph    
T = Trace of Precipitation, MM = Missing Value Source: NWS Daily Summary

Daily Weather History Graph

Daily Weather History Graph

Search for Another Location

Airport or City:

Trip Planner

Search our weather history database for the weather conditions in past years. The results will help you decide how hot, cold, wet, or windy it might be!

Date:

Astronomy

May. 04, 2013 Rise Set
Actual Time 6:07 AM MDT 8:30 PM MDT
Civil Twilight 5:34 AM MDT 9:02 PM MDT
Nautical Twilight 4:54 AM MDT 9:43 PM MDT
Astronomical Twilight 4:09 AM MDT 10:29 PM MDT
Moon 3:20 AM MDT (5/4) 3:20 PM MDT (5/4)
Length of Visible Light 15h 27m
Length of Day
14h 22m
Waning Crescent, 26% of the Moon is Illuminated
May 4
Waning Crescent
May 9
New
May 17
First Quarter
May 24
Full
May 31
Last Quarter

Hourly Weather History & Observations

Time (MDT) Temp. Windchill Dew Point Humidity Pressure Visibility Wind Dir Wind Speed Gust Speed Precip Events Conditions
12:56 AM 33.1 °F - 26.1 °F 75% 30.16 in - Calm Calm - N/A   Unknown
1:56 AM 32.0 °F - 26.1 °F 79% 30.13 in - Calm Calm - N/A   Unknown
2:56 AM 30.0 °F - 26.1 °F 85% 30.13 in - Calm Calm - N/A   Unknown
3:56 AM 28.9 °F - 26.1 °F 89% 30.14 in - Calm Calm - N/A   Unknown
4:56 AM 32.0 °F - 28.0 °F 85% 30.12 in - Calm Calm - N/A   Unknown
5:56 AM 32.0 °F 28.7 °F 28.0 °F 85% 30.12 in - Variable 3.5 mph - N/A   Unknown
6:56 AM 33.1 °F - 28.9 °F 85% 30.14 in - Calm Calm - N/A   Unknown
7:56 AM 35.1 °F - 28.0 °F 76% 30.14 in - Calm Calm - N/A   Unknown
8:56 AM 36.0 °F 33.3 °F 28.0 °F 73% 30.16 in - Variable 3.5 mph - N/A   Unknown
9:56 AM 37.9 °F 35.5 °F 26.1 °F 62% 30.14 in - Variable 3.5 mph - N/A   Unknown
10:56 AM 39.0 °F 35.7 °F 25.0 °F 57% 30.14 in - Variable 4.6 mph - N/A   Unknown
11:56 AM 39.0 °F 35.7 °F 25.0 °F 57% 30.17 in - Variable 4.6 mph - N/A   Unknown
12:56 PM 41.0 °F 38.0 °F 26.1 °F 55% 30.16 in - Variable 4.6 mph - N/A   Unknown
1:56 PM 41.0 °F 37.1 °F 26.1 °F 55% 30.15 in - Variable 5.8 mph - N/A   Unknown
2:56 PM 41.0 °F 39.0 °F 26.1 °F 55% 30.16 in - Variable 3.5 mph - N/A   Unknown
3:56 PM 42.1 °F 38.4 °F 25.0 °F 51% 30.15 in - Variable 5.8 mph - N/A   Unknown
4:56 PM 43.0 °F 39.5 °F 24.1 °F 47% 30.13 in - Variable 5.8 mph - N/A   Unknown
5:56 PM 42.1 °F - 25.0 °F 51% 30.15 in - Calm Calm - N/A   Unknown
6:56 PM 41.0 °F 35.8 °F 25.0 °F 53% 30.16 in - ENE 8.1 mph - N/A   Unknown
7:56 PM 39.0 °F - 25.0 °F 57% 30.17 in - Calm Calm - N/A   Unknown
8:56 PM 36.0 °F - 26.1 °F 67% 30.19 in - Calm Calm - N/A   Unknown
9:56 PM 35.1 °F 32.2 °F 25.0 °F 67% 30.19 in - Variable 3.5 mph - N/A   Unknown
10:56 PM 33.1 °F - 25.0 °F 72% 30.19 in - Calm Calm - N/A   Unknown
11:56 PM 32.0 °F 28.7 °F 25.0 °F 75% 30.19 in - Variable 3.5 mph - N/A   Unknown